Погода в Дунайке

Россия / Белгородская область     50°32′57″N   35°32′00″E
темп.,
°C
ветер,
м/с
пор.,
м/с
влажн.,
%
обл.,
%
осадки,
мм/ч
давл.,
гПа
погр.,
м
12 мая, ср
ср1200:00+8всв71378100 0.0 10191188
03:00+8в81383100 0.2 10191366
06:00+8в71382100 0.1 10191120
09:00+8в71283100 0.3 10191044
12:00+9в81386100 0.6 10181195
15:00+11в71076100 1.1 10161170
18:00+10вюв488588 1.6 1015570
21:00+8в51193100 2.6 1013388
13 мая, чт
чт1300:00+7юв510955 0.9 1014226
03:00+6юв41096100 0.9 1014280
06:00+6юв3897100 0.0 1015246
09:00+11ю45765 0.0 1015689
12:00+15ю465724 0.0 10151565
15:00+17ююз46515 0.0 10141749
18:00+17ююз25616 0.0 10141424
21:00+12юв338171 0.0 101431
14 мая, пт
пт1400:00+12всв3781100 0.0 1014114
03:00+12в411955 0.8 1013222
06:00+12вюв41195100 1.4 1012271
09:00+18юв688439 2.3 1011523
12:00+22ююв6869100 0.0 10111289
15:00+24ююв5962100 0.1 10101683
18:00+22ююв4773100 0.7 1009299
21:00+17ю3385100 1.4 101036
15 мая, сб
сб1500:00+15ююз33820 0.1 101026
03:00+13ююз22830 0.1 101014
06:00+13ююз2390100 0.0 101061
09:00+18ююз457588 0.0 1011469
12:00+21ююз68599 0.0 10111412
15:00+22юз685514 0.0 10112056
18:00+19зюз57743 1.3 1012678
21:00+14з22890 1.3 101318
16 мая, вс
вс1600:00+13всв118920 0.0 101410
03:00+13вюв11895 0.0 101411
06:00+13в22875 0.0 101418
09:00+19вюв34709 0.0 1014409
12:00+22вюв335654 0.0 10141202
15:00+24в344911 0.0 10132044
18:00+23в366473 0.0 1012271
21:00+18св4776100 0.0 1012105